Location: Casalecchio di Reno
(44.4760°N, 11.2757°E)
Time: 09:26:25
(UTC+02:00)

AO-73 - Pass Details

Date: 27 June 2024
Orbit: 555 x 624 km, 97.7° (Epoch: 17 July)

Event Time Altitude Azimuth Distance (km) Brightness Sun altitude
Rises 04:10:22 0° 17° (NNE) 2,749 ? -11.6°
Reaches altitude 10° 04:12:33 10° 21° (NNE) 1,850 ? -11.4°
Maximum altitude 04:16:28 55° 100° (E) 676 ? -10.9°
Drops below altitude 10° 04:20:24 10° 179° (S) 1,853 ? -10.5°
Enters shadow 04:20:58 - 181° (S) 2,085 ? -10.4°
